Madison, MN

10:15 AM CST on December 13, 2019 (GMT -0600)
Madison-Lac Qui Parle County

Weather History for KDXX - August, 2019

Change the Weather History Date:

Monday, August 19, 2019

  Actual Average (KAQP) Record (KAQP)
Temperature  
Mean Temperature 68 °F -  
Max Temperature 84 °F 77 °F 96 °F (1998)
Min Temperature 53 °F 55 °F 37 °F (2004)
Cooling Degree Days 4    
Growing Degree Days 18 (Base 50)    
Moisture  
Dew Point 62 °F    
Average Humidity 79    
Maximum Humidity 100    
Minimum Humidity 55    
Precipitation  
Precipitation 0.00 in - - ()
Sea Level Pressure  
Sea Level Pressure 29.95 in    
Wind  
Wind Speed 5 mph (SSE)    
Max Wind Speed 12 mph    
Max Gust Speed 16 mph    
Visibility 10 miles    
Events      
Averages and records for this station are not official NWS values.
T = Trace of Precipitation, MM = Missing Value Source: NWS Daily Summary

Daily Weather History Graph

Daily Weather History Graph

Search for Another Location

Airport or City:

Astronomy

Aug. 19, 2019 Rise Set
Actual Time 6:31 AM CDT 8:24 PM CDT
Civil Twilight 5:59 AM CDT 8:56 PM CDT
Nautical Twilight 5:20 AM CDT 9:34 PM CDT
Astronomical Twilight 4:38 AM CDT 10:16 PM CDT
Moon 10:36 PM CDT (8/19) 10:21 AM CDT (8/19)
Length of Visible Light 14h 56m
Length of Day
13h 53m
Waning Gibbous, 85% of the Moon is Illuminated
Aug 19
Waning Gibbous
Aug 23
Last Quarter
Aug 30
New
Sep 5
First Quarter
Sep 13
Full

Hourly Weather History & Observations

Time (CDT) Temp. Heat Index Dew Point Humidity Pressure Visibility Wind Dir Wind Speed Gust Speed Precip Events Conditions
12:15 AM 59.0 °F - 55.4 °F 88% 29.95 in 10.0 mi South 3.5 mph - N/A   Clear
12:35 AM 57.2 °F - 55.4 °F 94% 29.95 in 10.0 mi Calm Calm - N/A   Clear
12:36 AM 57.2 °F - 55.4 °F 94% 29.96 in 10.0 mi Calm Calm - N/A   Clear
12:55 AM 57.2 °F - 55.4 °F 94% 29.96 in 10.0 mi Calm Calm - N/A   Clear
12:56 AM 57.2 °F - 55.4 °F 94% 29.96 in 10.0 mi Calm Calm - N/A   Clear
1:19 AM 57.2 °F - 55.4 °F 94% 29.96 in 10.0 mi SSW 4.6 mph - N/A   Clear
1:36 AM 59.0 °F - 55.4 °F 88% 29.96 in 10.0 mi SSW 4.6 mph - N/A   Clear
1:56 AM 57.2 °F - 55.4 °F 94% 29.95 in 10.0 mi Calm Calm - N/A   Clear
2:15 AM 55.4 °F - 55.4 °F 100% 29.95 in 10.0 mi South 3.5 mph - N/A   Clear
2:35 AM 55.4 °F - 55.4 °F 100% 29.95 in 10.0 mi South 5.8 mph - N/A   Clear
2:39 AM 55.4 °F - 55.4 °F 100% 29.95 in 10.0 mi South 4.6 mph - N/A   Clear
2:57 AM 55.4 °F - 55.4 °F 100% 29.95 in 10.0 mi South 3.5 mph - N/A   Clear
3:16 AM 55.4 °F - 55.4 °F 100% 29.95 in 10.0 mi South 4.6 mph - N/A   Clear
3:35 AM 55.4 °F - 53.6 °F 94% 29.96 in 10.0 mi South 4.6 mph - N/A   Clear
3:36 AM 55.4 °F - 53.6 °F 94% 29.96 in 10.0 mi South 3.5 mph - N/A   Clear
3:55 AM 55.4 °F - 53.6 °F 94% 29.96 in 10.0 mi South 3.5 mph - N/A   Clear
3:56 AM 55.4 °F - 53.6 °F 94% 29.96 in 10.0 mi South 3.5 mph - N/A   Clear
4:18 AM 55.4 °F - 53.6 °F 94% 29.96 in 10.0 mi SSE 3.5 mph - N/A   Clear
4:36 AM 55.4 °F - 53.6 °F 94% 29.96 in 10.0 mi South 5.8 mph - N/A   Clear
4:55 AM 55.4 °F - 53.6 °F 94% 29.96 in 10.0 mi South 4.6 mph - N/A   Clear
5:15 AM 55.4 °F - 53.6 °F 94% 29.96 in 10.0 mi SSE 4.6 mph - N/A   Clear
5:16 AM 55.4 °F - 53.6 °F 94% 29.96 in 10.0 mi SSE 3.5 mph - N/A   Clear
5:35 AM 53.6 °F - 53.6 °F 100% 29.96 in 10.0 mi SSE 3.5 mph - N/A   Clear
5:40 AM 53.6 °F - 53.6 °F 100% 29.96 in 10.0 mi SSE 4.6 mph - N/A   Clear
5:58 AM 53.6 °F - 53.6 °F 100% 29.96 in 10.0 mi South 4.6 mph - N/A   Clear
6:16 AM 53.6 °F - 53.6 °F 100% 29.96 in 10.0 mi SSE 5.8 mph - N/A   Clear
6:35 AM 53.6 °F - 53.6 °F 100% 29.97 in 10.0 mi South 4.6 mph - N/A   Clear
6:36 AM 53.6 °F - 53.6 °F 100% 29.97 in 10.0 mi South 4.6 mph - N/A   Clear
6:55 AM 53.6 °F - 53.6 °F 100% 29.97 in 10.0 mi SSE 4.6 mph - N/A   Clear
7:18 AM 55.4 °F - 55.4 °F 100% 29.97 in 10.0 mi SSE 4.6 mph - N/A   Clear
7:37 AM 57.2 °F - 55.4 °F 94% 29.98 in 10.0 mi South 4.6 mph - N/A   Clear
7:56 AM 60.8 °F - 57.2 °F 88% 29.97 in 10.0 mi SSE 4.6 mph - N/A   Clear
8:15 AM 62.6 °F - 57.2 °F 82% 29.98 in 10.0 mi SSE 4.6 mph - N/A   Clear
8:16 AM 62.6 °F - 57.2 °F 82% 29.98 in 10.0 mi SSE 4.6 mph - N/A   Clear
8:35 AM 62.6 °F - 57.2 °F 82% 29.97 in 10.0 mi SSE 4.6 mph - N/A   Clear
8:39 AM 64.4 °F - 57.2 °F 77% 29.97 in 10.0 mi South 5.8 mph - N/A   Clear
8:58 AM 64.4 °F - 57.2 °F 77% 29.97 in 10.0 mi South 4.6 mph - N/A   Clear
9:16 AM 66.2 °F - 60.8 °F 83% 29.97 in 10.0 mi SSE 4.6 mph - N/A   Clear
9:35 AM 69.8 °F - 60.8 °F 73% 29.97 in 10.0 mi South 5.8 mph - N/A   Clear
9:36 AM 69.8 °F - 60.8 °F 73% 29.97 in 10.0 mi South 6.9 mph - N/A   Clear
9:55 AM 69.8 °F - 60.8 °F 73% 29.97 in 10.0 mi South 6.9 mph - N/A   Clear
9:56 AM 69.8 °F - 60.8 °F 73% 29.97 in 10.0 mi South 5.8 mph - N/A   Clear
10:19 AM 73.4 °F - 62.6 °F 69% 29.97 in 10.0 mi South 6.9 mph - N/A   Clear
10:36 AM 73.4 °F - 62.6 °F 69% 29.98 in 10.0 mi South 6.9 mph - N/A   Clear
10:56 AM 75.2 °F - 64.4 °F 69% 29.97 in 10.0 mi South 9.2 mph - N/A   Clear
11:15 AM 75.2 °F - 64.4 °F 69% 29.97 in 10.0 mi South 6.9 mph - N/A   Clear
11:16 AM 77.0 °F - 64.4 °F 65% 29.97 in 10.0 mi South 8.1 mph - N/A   Clear
11:35 AM 77.0 °F - 64.4 °F 65% 29.97 in 10.0 mi South 8.1 mph - N/A   Clear
11:39 AM 78.8 °F - 66.2 °F 65% 29.97 in 10.0 mi South 8.1 mph - N/A   Clear
11:58 AM 78.8 °F - 66.2 °F 65% 29.97 in 10.0 mi SSW 6.9 mph - N/A   Clear
12:15 PM 78.8 °F - 66.2 °F 65% 29.97 in 10.0 mi South 8.1 mph - N/A   Clear
12:35 PM 80.6 °F 82.7 °F 66.2 °F 61% 29.96 in 10.0 mi South 8.1 mph - N/A   Clear
12:36 PM 80.6 °F 82.7 °F 66.2 °F 61% 29.96 in 10.0 mi South 8.1 mph - N/A   Clear
12:55 PM 80.6 °F 82.7 °F 66.2 °F 61% 29.96 in 10.0 mi South 6.9 mph - N/A   Clear
1:18 PM 80.6 °F 82.7 °F 66.2 °F 61% 29.96 in 10.0 mi South 5.8 mph - N/A   Clear
1:37 PM 82.4 °F 85.4 °F 68.0 °F 62% 29.96 in 10.0 mi SSW 5.8 mph - N/A   Clear
1:56 PM 82.4 °F 85.4 °F 68.0 °F 62% 29.95 in 10.0 mi South 10.4 mph - N/A   Clear
2:15 PM 82.4 °F 84.6 °F 66.2 °F 58% 29.95 in 10.0 mi South 6.9 mph - N/A   Clear
2:16 PM 82.4 °F 84.6 °F 66.2 °F 58% 29.95 in 10.0 mi South 5.8 mph - N/A   Clear
2:38 PM 82.4 °F 84.6 °F 66.2 °F 58% 29.94 in 10.0 mi SSE 8.1 mph - N/A   Clear
2:56 PM 84.2 °F 87.3 °F 68.0 °F 58% 29.94 in 10.0 mi South 9.2 mph - N/A   Clear
3:15 PM 84.2 °F 86.6 °F 66.2 °F 55% 29.93 in 10.0 mi South 10.4 mph - N/A   Clear
3:35 PM 84.2 °F 87.3 °F 68.0 °F 58% 29.93 in 10.0 mi SSE 8.1 mph - N/A   Clear
3:36 PM 84.2 °F 87.3 °F 68.0 °F 58% 29.93 in 10.0 mi SSE 9.2 mph - N/A   Clear
3:59 PM 84.2 °F 87.3 °F 68.0 °F 58% 29.92 in 10.0 mi SSE 10.4 mph - N/A   Clear
4:16 PM 84.2 °F 87.3 °F 68.0 °F 58% 29.92 in 10.0 mi SSE 10.4 mph - N/A   Clear
4:36 PM 84.2 °F 87.3 °F 68.0 °F 58% 29.92 in 10.0 mi South 10.4 mph 16.1 mph N/A   Clear
4:55 PM 84.2 °F 86.6 °F 66.2 °F 55% 29.91 in 10.0 mi SSE 10.4 mph - N/A   Clear
4:56 PM 84.2 °F 86.6 °F 66.2 °F 55% 29.91 in 10.0 mi SSE 8.1 mph - N/A   Clear
5:15 PM 84.2 °F 88.4 °F 69.8 °F 62% 29.91 in 10.0 mi SSE 10.4 mph - N/A   Clear
5:19 PM 84.2 °F 87.3 °F 68.0 °F 58% 29.91 in 10.0 mi South 10.4 mph - N/A   Clear
5:38 PM 84.2 °F 86.6 °F 66.2 °F 55% 29.91 in 10.0 mi SSE 11.5 mph 16.1 mph N/A   Clear
5:55 PM 82.4 °F 85.4 °F 68.0 °F 62% 29.91 in 10.0 mi South 10.4 mph - N/A   Clear
6:15 PM 82.4 °F 84.6 °F 66.2 °F 58% 29.91 in 10.0 mi South 11.5 mph - N/A   Clear
6:16 PM 82.4 °F 84.6 °F 66.2 °F 58% 29.91 in 10.0 mi South 10.4 mph - N/A   Clear
6:35 PM 82.4 °F 84.6 °F 66.2 °F 58% 29.91 in 10.0 mi South 8.1 mph - N/A   Clear
6:58 PM 82.4 °F 84.6 °F 66.2 °F 58% 29.91 in 10.0 mi South 8.1 mph - N/A   Clear
7:16 PM 80.6 °F 83.9 °F 69.8 °F 70% 29.91 in 10.0 mi SSE 8.1 mph - N/A   Clear
7:35 PM 80.6 °F 83.2 °F 68.0 °F 65% 29.91 in 10.0 mi SSE 5.8 mph - N/A   Clear
7:36 PM 80.6 °F 83.2 °F 68.0 °F 65% 29.91 in 10.0 mi SSE 5.8 mph - N/A   Clear
7:55 PM 78.8 °F - 68.0 °F 69% 29.91 in 10.0 mi SSE 4.6 mph - N/A   Clear
7:56 PM 78.8 °F - 68.0 °F 69% 29.91 in 10.0 mi SSE 5.8 mph - N/A   Clear
8:15 PM 75.2 °F - 68.0 °F 78% 29.92 in 10.0 mi SSE 5.8 mph - N/A   Clear
8:20 PM 75.2 °F - 68.0 °F 78% 29.92 in 10.0 mi SSE 5.8 mph - N/A   Clear
8:37 PM 73.4 °F - 68.0 °F 83% 29.92 in 10.0 mi SSE 5.8 mph - N/A   Clear
8:55 PM 73.4 °F - 68.0 °F 83% 29.92 in 10.0 mi SSE 5.8 mph - N/A   Clear
9:15 PM 73.4 °F - 68.0 °F 83% 29.93 in 10.0 mi SE 5.8 mph - N/A   Clear
9:35 PM 71.6 °F - 69.8 °F 94% 29.93 in 10.0 mi SE 5.8 mph - N/A   Scattered Clouds
9:36 PM 71.6 °F - 69.8 °F 94% 29.93 in 10.0 mi SE 6.9 mph - N/A   Scattered Clouds
9:58 PM 73.4 °F - 69.8 °F 88% 29.94 in 10.0 mi SSE 4.6 mph - N/A   Scattered Clouds
10:17 PM 71.6 °F - 69.8 °F 94% 29.94 in 10.0 mi SE 4.6 mph - N/A   Clear
10:36 PM 73.4 °F - 69.8 °F 88% 29.94 in 10.0 mi SE 5.8 mph - N/A   Scattered Clouds
10:55 PM 71.6 °F - 69.8 °F 94% 29.94 in 10.0 mi SE 5.8 mph - N/A   Scattered Clouds
10:56 PM 71.6 °F - 69.8 °F 94% 29.93 in 10.0 mi SE 6.9 mph - N/A   Scattered Clouds
11:15 PM 71.6 °F - 69.8 °F 94% 29.93 in 10.0 mi SE 5.8 mph - N/A   Clear
11:37 PM 71.6 °F - 69.8 °F 94% 29.93 in 10.0 mi SSE 6.9 mph - N/A   Clear
11:56 PM 71.6 °F - 69.8 °F 94% 29.92 in 10.0 mi SE 8.1 mph - N/A   Scattered Clouds